Location: Waco, TX
(31.5480°N, 97.1670°W)
Time: 16:17:35
(UTC-05:00)

ISS - Pass Details

Date: 19 August 2019
Orbit: 410 x 421 km, 51.6° (Epoch: 22 August)

Event Time Altitude Azimuth Distance (km) Brightness Sun altitude
Rises 15:18:33 0° 332° (NNW) 2,368 0.0 59.1°
Reaches altitude 10° 15:21:25 10° 359° (N) 1,502 -1.0 58.6°
Maximum altitude 15:23:19 14° 33° (NNE) 1,268 -1.4 58.3°
Drops below altitude 10° 15:25:13 10° 68° (ENE) 1,498 -1.2 57.9°
Sets 15:28:04 0° 94° (E) 2,359 -0.2 57.4°
